Miscellaneous Local Product
Issued by NWS Hastings, NE

Home | Current Version | Previous Version | Text Only | Print | Product List | Glossary On
Versions: 1 2 3 4 5 6 7 8 9 10 11 12 13 14 15 16 17 18 19 20 21 22 23 24 25 26 27 28 29 30 31 32 33 34 35 36 37 38 39 40 41 42 43 44 45 46 47 48 49 50
176
AXUS43 KGID 221402
MISGRI

GID CWA HOURLY WEATHER ROUNDUP
NATIONAL WEATHER SERVICE HASTINGS NE
800 AM CST WED NOV 22 2017

NOTE: "FAIR" INDICATES FEW OR NO CLOUDS BELOW 12,000 FEET WITH NO
SIGNIFICANT WEATHER AND/OR OBSTRUCTIONS TO VISIBILITY.

...SOUTH CENTRAL NEBRASKA...

CITY           SKY/WX    TMP DP  RH WIND       PRES   REMARKS
GRAND ISLAND   CLOUDY    21  15  78 S10       30.30F WCI  10
KEARNEY        CLOUDY    24  15  68 S8        30.28F WCI  15
HASTINGS       CLOUDY    19  12  74 S8        30.31F WCI   9
ORD            CLOUDY    22  15  75 SE6       30.23F WCI  14
YORK           CLOUDY    18  14  86 S6        30.33F WCI   9
AURORA         CLOUDY    21  13  72 S10       30.31F WCI  10
LEXINGTON      CLOUDY    31  16  55 S8        30.22F WCI  23
HOLDREGE       CLOUDY    25  16  68 S10G17    30.25F WCI  15
HEBRON         CLOUDY    18  13  81 CALM      30.38R

...NEBRASKA PANHANDLE...

CITY           SKY/WX    TMP DP  RH WIND       PRES   REMARKS
CHADRON        CLOUDY    32  29  88 W5        30.10S WCI  27
ALLIANCE       CLOUDY    29  29 100 SW7       30.12R WCI  22
SCOTTSBLUFF    CLOUDY    28  24  85 CALM      30.14S
SIDNEY         CLOUDY    37  32  82 W9        30.17S WCI  30

...WESTERN AND NORTH CENTRAL NEBRASKA...

CITY           SKY/WX    TMP DP  RH WIND       PRES   REMARKS
VALENTINE      CLOUDY    28  22  78 W5        30.10F WCI  23
AINSWORTH      CLOUDY    29  19  66 SW13      30.11F WCI  19
ONEILL         CLOUDY    24  17  75 S12       30.19F WCI  13
BROKEN BOW     CLOUDY    28  14  55 S8        30.18F WCI  20
IMPERIAL       CLOUDY    30  26  85 SW5       30.17F WCI  25
NORTH PLATTE   CLOUDY    28  20  71 S6        30.18F WCI  22
MCCOOK         CLOUDY    30  21  69 S5        30.21F WCI  25

...EASTERN NEBRASKA...

CITY           SKY/WX    TMP DP  RH WIND       PRES   REMARKS
NORFOLK        CLOUDY    13  10  88 SE5       30.29F WCI   5
SO SIOUX CITY  CLOUDY    11   7  84 E6        30.36S WCI   1
TEKAMAH        CLOUDY    11   6  81 S6        30.39R WCI   1
COLUMBUS       CLEAR     16  12  84 SE5       30.35R WCI   9
ALBION         CLOUDY    19  13  77 S5        30.28F WCI  12
OMAHA EPPLEY   CLOUDY    18  12  77 SE5       30.41R WCI  11
OFFUTT AFB     CLOUDY    15  12  85 S3        30.40R
MILLARD        PTCLDY    17  14  87 CALM      30.40S
LINCOLN        CLOUDY    16  12  84 CALM      30.40R
NEBRASKA CITY  CLOUDY    17  14  88 CALM      30.41R
BEATRICE       CLOUDY    16  13  87 CALM      30.40R
FALLS CITY     CLOUDY    15  12  88 CALM      30.43R

...NORTHERN KANSAS...

CITY           SKY/WX    TMP DP  RH WIND       PRES   REMARKS
GOODLAND       CLOUDY    40  30  67 W10       30.19F WCI  33
HILL CITY      CLOUDY    29  17  61 CALM      30.31S
NORTON         SUNNY     28  12  50 S10       30.24F WCI  19
PHILLIPSBURG   CLEAR     25  18  74 E5        30.32F WCI  19
SMITH CENTER   CLEAR     19  14  79 SE5       30.35F WCI  13
HAYS           CLOUDY    23  17  78 S6        30.36R WCI  16
RUSSELL        CLOUDY    22  16  78 S9        30.35S WCI  12
CONCORDIA      CLOUDY    19  14  81 SW7       30.38S WCI  10
SALINA         CLOUDY    21  14  74 SW5       30.43R WCI  15
TOPEKA         CLOUDY    20  16  84 CALM      30.44R



USA.gov is the U.S. government's official web portal to all federal, state and local government web resources and services.